Showing default

SWOT, 54754

Orbit data source: Space-Track

SWOT, 54754 is an American payload satellite in LEO that was launched on Fri, 16 Dec 2022 UTC via an FALCON 9 launch vehicle from the Air Force Western Test Range (AFWTR). Payload-class satellites include a variety of spacecraft equipped with specific instruments for various scientific and technological missions. These include communications satellites like Starlink; space stations such as the ISS; scientific satellites like the Hubble; Earth observation satellites from companies like Planet Labs, Umbra, and HawkEye 360; GPS; miniature CubeSats for education and research; and military/defense satellites.

Loading next visibility...
Identifier
54754, 2022-173A
Orbit
LEO
Country
Flag of USUS
Related business
Manufacturer
Thales Alenia
Mission
Operational Civil Earth Obs Sci
Bus & Motor
SWOT, Unknown motor
Mass
2,200 kg wet, 2,200 kg dry
Launch date (UTC)
2022-12-16 (4 years ago)
Launch vehicle
FALCON 9
Launch site
Air Force Western Test Range (AFWTR)
Object type
Payload
Rocket body
Debris
Shape & HBR
Box + 2 Pan + 2 Arm, 7.9 m
Radar Cross Section
23.946 m², Large (>1 m²)

Expand to show TLE details & history
Last TLE update: 2 days ago

TLE from 2 days ago
0 SWOT
1 54754U 22173A   26171.41805959  .00000075  00000-0  52339-4 0  9996
2 54754  77.6105  30.9486 0000286  91.4251 268.6933 14.00169969179606
Epoch: 2026-06-20T10:02Z
TLE epoch observation values (Epoch: 2026-06-20T10:02:00.348Z)
Latitude
-0.00006°
Longitude
-28.18583°
Altitude
895.958 km
Speed
7.404 km/s
True Right ascension
02h 03m 47s
True Declination
0° 00' 00"
Sunlit
Object was in daylight at epoch
Visualization orbit readout
Latitude
Unknown
Longitude
Unknown
Altitude
Unknown
Speed
Unknown
Apparent Right ascension
Unknown
Apparent Declination
Unknown
Sunlit
N/A
Visualization observer readout
Local Sidereal Time
23:08:43
Azimuth
Unknown
Elevation
Unknown
Doppler factor
Unknown
Orbital elements
Apogee altitude
890.809 km
Perigee altitude
890.394 km
Semi-major axis
7,268.739 km
Eccentricity
0.00003
Inclination
77.6105°
RAAN
30.9486°
Arg. of periapsis
91.4251°
True anomaly
268.69002°
Mean anomaly
268.6933°
Eccentric anomaly
268.69166°
Mean motion
3.50231 °/min
Orbital period
102.79 mins
BSTAR
0.000052339
Loading maneuver chart data...
Computing Atmospheric mass density...
Loading historical data...
Loading historical data...
Loading historical data...
Loading historical data...
Loading historical data...
Loading historical data...
Loading historical data...
Other satellites on launch #173 in the year 2022 (2022-12-16 UTC)

Documentation

Showing up to 5 results
|